Kalaeloa, HI

7:43 PM HST on May 27, 2018 (GMT -1000)
Kalaeloa (John Rodgers Field)

Weather History for PHJR - October, 2012

Change the Weather History Date:

Friday, October 12, 2012

  Actual Average (PHHI) Record (PHHI)
Temperature  
Mean Temperature 75 °F -  
Max Temperature 84 °F 80 °F 84 °F (2004)
Min Temperature 66 °F 67 °F 64 °F (2011)
Cooling Degree Days 10    
Growing Degree Days 25 (Base 50)    
Moisture  
Dew Point 66 °F    
Average Humidity 70    
Maximum Humidity 93    
Minimum Humidity 51    
Precipitation  
Precipitation 0.00 in - - ()
Sea Level Pressure  
Sea Level Pressure 30.12 in    
Wind  
Wind Speed 4 mph (East)    
Max Wind Speed 9 mph    
Max Gust Speed -    
Visibility 10 miles    
Events      
Averages and records for this station are not official NWS values.
T = Trace of Precipitation, MM = Missing Value Source: NWS Daily Summary

Daily Weather History Graph

Daily Weather History Graph

Search for Another Location

Airport or City:

Astronomy

Oct. 12, 2012 Rise Set
Actual Time 6:27 AM HST 6:09 PM HST
Civil Twilight 6:04 AM HST 6:32 PM HST
Nautical Twilight 5:38 AM HST 6:57 PM HST
Astronomical Twilight 5:13 AM HST 7:23 PM HST
Moon 3:41 AM HST (10/12) 4:11 PM HST (10/12)
Length of Visible Light 12h 27m
Length of Day
11h 42m
Waning Crescent, 9% of the Moon is Illuminated
Oct 12
Waning Crescent
Oct 15
New
Oct 21
First Quarter
Oct 29
Full
Nov 6
Last Quarter

Hourly Weather History & Observations

Time (HST) Temp. Heat Index Dew Point Humidity Pressure Visibility Wind Dir Wind Speed Gust Speed Precip Events Conditions
12:53 AM 75.0 °F - 68.0 °F 79% 30.12 in 10.0 mi East 4.6 mph - N/A   Scattered Clouds
1:53 AM 73.9 °F - 68.0 °F 82% 30.11 in 10.0 mi Variable 3.5 mph - N/A   Scattered Clouds
2:53 AM 73.0 °F - 66.9 °F 81% 30.10 in 10.0 mi Calm Calm - N/A   Clear
3:53 AM 70.0 °F - 66.0 °F 87% 30.09 in 10.0 mi Calm Calm - N/A   Clear
4:53 AM 69.1 °F - 66.0 °F 90% 30.10 in 10.0 mi Calm Calm - N/A   Clear
5:53 AM 68.0 °F - 64.9 °F 90% 30.12 in 10.0 mi Calm Calm - N/A   Clear
6:53 AM 66.9 °F - 64.9 °F 93% 30.13 in 10.0 mi Calm Calm - N/A   Clear
7:53 AM 75.0 °F - 66.0 °F 73% 30.14 in 10.0 mi ENE 8.1 mph - N/A   Clear
8:53 AM 79.0 °F - 66.0 °F 64% 30.14 in 10.0 mi ENE 8.1 mph - N/A   Clear
9:53 AM 80.1 °F 82.1 °F 66.0 °F 62% 30.14 in 10.0 mi SE 9.2 mph - N/A   Scattered Clouds
10:53 AM 82.9 °F 85.0 °F 66.0 °F 56% 30.14 in 10.0 mi East 8.1 mph - N/A   Partly Cloudy
11:53 AM 84.0 °F 87.0 °F 68.0 °F 58% 30.11 in 10.0 mi SE 8.1 mph - N/A   Partly Cloudy
12:53 PM 84.0 °F 86.3 °F 66.0 °F 55% 30.09 in 10.0 mi Variable 4.6 mph - N/A   Overcast
1:53 PM 84.9 °F 87.1 °F 66.0 °F 53% 30.06 in 10.0 mi Variable 4.6 mph - N/A   Mostly Cloudy
2:53 PM 84.0 °F 85.8 °F 64.9 °F 53% 30.05 in 10.0 mi Variable 5.8 mph - N/A   Clear
3:53 PM 84.0 °F 85.4 °F 64.0 °F 51% 30.06 in 10.0 mi Variable 4.6 mph - N/A   Clear
4:53 PM 82.9 °F 84.6 °F 64.9 °F 54% 30.07 in 10.0 mi East 5.8 mph - N/A   Clear
5:53 PM 79.0 °F - 64.9 °F 62% 30.09 in 10.0 mi Variable 5.8 mph - N/A   Clear
6:53 PM 75.9 °F - 64.9 °F 69% 30.12 in 10.0 mi Variable 3.5 mph - N/A   Clear
7:53 PM 75.0 °F - 66.0 °F 73% 30.14 in 10.0 mi Variable 3.5 mph - N/A   Clear
8:53 PM 75.0 °F - 66.0 °F 73% 30.16 in 10.0 mi ENE 4.6 mph - N/A   Clear
9:53 PM 75.0 °F - 66.9 °F 76% 30.17 in 10.0 mi ENE 4.6 mph - N/A   Partly Cloudy
10:53 PM 75.0 °F - 66.9 °F 76% 30.17 in 10.0 mi Calm Calm - N/A   Clear
11:53 PM 75.0 °F - 66.9 °F 76% 30.16 in 10.0 mi Variable 3.5 mph - N/A   Clear